Weather History for St. David's, Bermuda

Change the Weather History Date:

Monday, November 7, 2011

  Actual Average Record
Temperature  
Mean Temperature 70 °F -  
Max Temperature 73 °F 71 °F 80 °F (2003)
Min Temperature 67 °F 64 °F 60 °F (2001)
Cooling Degree Days 5    
Growing Degree Days 20 (Base 50)    
Moisture  
Dew Point 63 °F    
Average Humidity 73    
Maximum Humidity 88    
Minimum Humidity 61    
Precipitation  
Precipitation 0.04 in - - ()
Sea Level Pressure  
Sea Level Pressure 30.05 in    
Wind  
Wind Speed 26 mph ()    
Max Wind Speed 33 mph    
Max Gust Speed 46 mph    
Visibility 6.5 miles    
Events Rain    
Averages and records for this station are not official NWS values.
T = Trace of Precipitation, MM = Missing Value Source: Averaged Metar Reports

Daily Weather History Graph

Daily Weather History Graph

Search for Another Location

Airport:

Trip Planner

Search our weather history database for the weather conditions in past years. The results will help you decide how hot, cold, wet, or windy it might be!

Date:

Astronomy

Nov. 07, 2011 Rise Set
Actual Time 6:40 AM AST 5:23 PM AST
Civil Twilight 6:15 AM AST 5:49 PM AST
Nautical Twilight 5:45 AM AST 6:18 PM AST
Astronomical Twilight 5:16 AM AST 6:47 PM AST
Moon 3:26 PM AST (11/7) 3:47 AM AST (11/7)
Length of Visible Light 11h 34m
Length of Day
10h 42m
Waxing Gibbous, 91% of the Moon is Illuminated
Nov 7
Waxing Gibbous
Nov 10
Full
Nov 18
Last Quarter
Nov 25
New
Dec 2
First Quarter

Hourly Weather History & Observations

Time (AST) Temp. Dew Point Humidity Pressure Visibility Wind Dir Wind Speed Gust Speed Precip Events Conditions
12:34 AM 71.6 °F 59.0 °F 64% 30.06 in 6.2 mi East 31.1 mph - N/A   Overcast
12:55 AM 71.6 °F 59.0 °F 64% 30.06 in 6.2 mi East 26.5 mph - N/A   Overcast
1:55 AM 71.6 °F 60.8 °F 69% 30.06 in 6.2 mi ENE 27.6 mph - N/A   Overcast
2:00 AM 71 °F 60 °F 61% 30.08 in 9 mi ENE 29.9 mph - - Rain Light Rain Showers
2:55 AM 69.8 °F 59.0 °F 68% 30.06 in 6.2 mi East 26.5 mph - N/A   Overcast
3:55 AM 69.8 °F 62.6 °F 78% 30.04 in 5.6 mi East 29.9 mph 43.7 mph N/A Rain Light Rain Showers
4:55 AM 71.6 °F 60.8 °F 69% 30.06 in 6.2 mi East 26.5 mph - N/A   Overcast
5:00 AM 71 °F 62 °F 64% 30.06 in 9 mi ENE 25.3 mph - - Rain Light Rain Showers
5:55 AM 71.6 °F 62.6 °F 73% 30.06 in 6.2 mi ENE 28.8 mph - N/A   Overcast
6:21 AM 71.6 °F 60.8 °F 69% 30.06 in 5.6 mi East 28.8 mph - N/A Rain Light Rain Showers
6:33 AM 71.6 °F 60.8 °F 69% 30.06 in 6.2 mi East 27.6 mph - N/A   Mostly Cloudy
6:55 AM 71.6 °F 62.6 °F 73% 30.04 in 6.2 mi ENE 27.6 mph - N/A   Mostly Cloudy
7:02 AM 71.6 °F 62.6 °F 73% 30.06 in 6.2 mi ENE 26.5 mph 39.1 mph N/A Rain Light Rain Showers
7:10 AM 71.6 °F 62.6 °F 73% 30.06 in 6.2 mi ENE 26.5 mph 38.0 mph N/A   Mostly Cloudy
7:55 AM 71.6 °F 62.6 °F 73% 30.06 in 6.2 mi East 27.6 mph - N/A   Mostly Cloudy
8:00 AM 72 °F 62 °F 63% 30.08 in 9 mi East 27.6 mph - - Rain Light Rain Showers
8:55 AM 73.4 °F 62.6 °F 69% 30.09 in 6.2 mi East 28.8 mph - N/A   Mostly Cloudy
9:09 AM 73.4 °F 62.6 °F 69% 30.09 in 5.6 mi East 29.9 mph 41.4 mph N/A Rain Light Rain Showers
9:21 AM 71.6 °F 62.6 °F 73% 30.09 in - East 28.8 mph - N/A Rain Rain Showers
9:25 AM 71.6 °F 64.4 °F 78% 30.09 in 6.2 mi East 28.8 mph - N/A   Mostly Cloudy
9:55 AM 71.6 °F 64.4 °F 78% 30.09 in 6.2 mi East 27.6 mph - N/A   Mostly Cloudy
10:07 AM 73.4 °F 64.4 °F 73% 30.09 in 6.2 mi East 29.9 mph 41.4 mph N/A Rain Light Rain Showers
10:22 AM 71.6 °F 64.4 °F 78% 30.09 in 6.2 mi East 28.8 mph - N/A   Mostly Cloudy
10:55 AM 73.4 °F 64.4 °F 73% 30.09 in 6.2 mi East 31.1 mph 43.7 mph N/A   Overcast
11:00 AM 73 °F 64 °F 67% 30.09 in 9 mi East 31.1 mph - - Rain Light Rain Showers
11:25 AM 73.4 °F 62.6 °F 69% 30.06 in 5.0 mi East 32.2 mph 46.0 mph N/A Rain Light Rain Showers
11:31 AM 69.8 °F 62.6 °F 78% 30.06 in 5.0 mi East 33.4 mph 46.0 mph N/A Rain Light Rain Showers
11:55 AM 73.4 °F 64.4 °F 73% 30.06 in 6.2 mi East 26.5 mph - N/A   Mostly Cloudy
12:23 PM 73.4 °F 64.4 °F 73% 30.04 in 6.2 mi East 29.9 mph 42.6 mph N/A   Overcast
12:29 PM 73.4 °F 64.4 °F 73% 30.04 in 6.2 mi East 25.3 mph - N/A Rain Light Rain Showers
12:37 PM 69.8 °F 64.4 °F 83% 30.04 in 6.2 mi East 31.1 mph - N/A   Mostly Cloudy
12:55 PM 71.6 °F 64.4 °F 78% 30.04 in 6.2 mi East 28.8 mph - N/A Rain Light Rain Showers
1:55 PM 71.6 °F 64.4 °F 78% 30.01 in 6.2 mi East 28.8 mph - N/A   Mostly Cloudy
2:00 PM 71 °F 64 °F 71% 30.03 in 9 mi East 28.8 mph - - Rain Light Rain Showers
2:55 PM 73.4 °F 62.6 °F 69% 30.01 in 6.2 mi East 27.6 mph - N/A   Mostly Cloudy
3:55 PM 73.4 °F 62.6 °F 69% 30.01 in 6.2 mi East 27.6 mph - N/A   Mostly Cloudy
4:11 PM 73.4 °F 62.6 °F 69% 30.01 in 6.2 mi East 28.8 mph - N/A Rain Light Rain Showers
4:36 PM 69.8 °F 64.4 °F 83% 30.04 in - East 31.1 mph - N/A Rain Light Rain Showers
4:41 PM 69.8 °F 66.2 °F 88% 30.04 in 3.7 mi East 31.1 mph - N/A Rain Light Rain Showers
4:55 PM 69.8 °F 64.4 °F 83% 30.04 in 5.6 mi East 26.5 mph - N/A   Overcast
5:00 PM 69 °F 65 °F 82% 30.04 in 9 mi East 26.5 mph - - Rain Light Rain Showers
5:55 PM 71.6 °F 62.6 °F 73% 30.01 in 6.2 mi East 27.6 mph - N/A   Mostly Cloudy
6:42 PM 71.6 °F 62.6 °F 73% 30.04 in 6.2 mi East 29.9 mph - N/A   Mostly Cloudy
6:55 PM 71.6 °F 62.6 °F 73% 30.04 in 6.2 mi East 28.8 mph 42.6 mph N/A   Mostly Cloudy
7:55 PM 71.6 °F 62.6 °F 73% 30.04 in 6.2 mi East 29.9 mph 42.6 mph N/A   Mostly Cloudy
8:00 PM 72 °F 63 °F 66% 30.05 in 9 mi ENE 31.1 mph - -   Mostly Cloudy
8:55 PM 73.4 °F 62.6 °F 69% 30.04 in 6.2 mi East 27.6 mph 39.1 mph N/A   Mostly Cloudy
9:26 PM 73.4 °F 64.4 °F 73% 30.04 in 6.2 mi East 26.5 mph - N/A   Overcast
9:55 PM 71.6 °F 64.4 °F 78% 30.04 in 6.2 mi East 29.9 mph 42.6 mph N/A   Mostly Cloudy
10:38 PM 71.6 °F 64.4 °F 78% 30.04 in 6.2 mi East 28.8 mph - N/A   Overcast
10:55 PM 71.6 °F 64.4 °F 78% 30.04 in 6.2 mi East 26.5 mph - N/A   Mostly Cloudy
11:00 PM 72 °F 64 °F 68% 30.04 in 9 mi East 25.3 mph - -   Mostly Cloudy
11:40 PM 71.6 °F 64.4 °F 78% 30.01 in 6.2 mi East 26.5 mph - N/A   Mostly Cloudy
11:55 PM 71.6 °F 64.4 °F 78% 30.01 in 6.2 mi East 28.8 mph - N/A   Mostly Cloudy